Weather History for KBJC - January, 2013

Change the Weather History Date:

Monday, January 14, 2013

  Actual Average Record
Temperature  
Mean Temperature 9 °F -  
Max Temperature 15 °F 44 °F 64 °F (2000)
Min Temperature 3 °F 24 °F 1 °F (1997)
Degree Days  
Heating Degree Days 56    
Moisture  
Dew Point -1 °F    
Average Humidity 68    
Maximum Humidity 85    
Minimum Humidity 41    
Precipitation  
Precipitation 0.00 in - - ()
Sea Level Pressure  
Sea Level Pressure 30.03 in    
Wind  
Wind Speed 3 mph (NNW)    
Max Wind Speed 7 mph    
Max Gust Speed -    
Visibility 10 miles    
Events Snow    
Averages and records for this station are not official NWS values.
T = Trace of Precipitation, MM = Missing Value Source: NWS Daily Summary

Daily Weather History Graph

Daily Weather History Graph

Search for Another Location

Airport or City:

Trip Planner

Search our weather history database for the weather conditions in past years. The results will help you decide how hot, cold, wet, or windy it might be!

Date:

Astronomy

Jan. 14, 2013 Rise Set
Actual Time 7:20 AM MST 4:59 PM MST
Civil Twilight 6:50 AM MST 5:28 PM MST
Nautical Twilight 6:17 AM MST 6:02 PM MST
Astronomical Twilight 5:44 AM MST 6:34 PM MST
Moon 8:55 AM MST (1/14) 8:47 PM MST (1/14)
Length of Visible Light 10h 38m
Length of Day
9h 38m
Waxing Crescent, 12% of the Moon is Illuminated
Jan 14
Waxing Crescent
Jan 18
First Quarter
Jan 26
Full
Feb 3
Last Quarter
Feb 10
New

Hourly Weather History & Observations

Time (MST) Temp. Windchill Dew Point Humidity Pressure Visibility Wind Dir Wind Speed Gust Speed Precip Events Conditions
12:16 AM 8.6 °F - 1.4 °F 73% 30.03 in 10.0 mi Calm Calm - N/A   Scattered Clouds
12:36 AM 6.8 °F - 1.4 °F 79% 30.03 in 5.0 mi Calm Calm - N/A Snow Light Snow
12:56 AM 8.6 °F - 3.2 °F 79% 30.02 in 3.0 mi Calm Calm - N/A Snow Light Snow
1:16 AM 5.0 °F -5.6 °F 1.4 °F 85% 30.02 in 4.0 mi NW 5.8 mph - N/A Snow Light Snow
1:36 AM 5.0 °F -4.1 °F -0.4 °F 78% 30.02 in 10.0 mi NW 4.6 mph - N/A   Clear
1:56 AM 5.0 °F -4.1 °F -0.4 °F 78% 30.02 in 10.0 mi NNW 4.6 mph - N/A Snow Light Snow
2:16 AM 5.0 °F -4.1 °F 1.4 °F 85% 30.02 in 5.0 mi NW 4.6 mph - N/A Snow Light Snow
2:36 AM 5.0 °F -2.1 °F 1.4 °F 85% 30.03 in 10.0 mi NNW 3.5 mph - N/A Snow Light Snow
3:16 AM 5.0 °F -4.1 °F -0.4 °F 78% 30.03 in 10.0 mi NNW 4.6 mph - N/A   Mostly Cloudy
3:36 AM 5.0 °F -5.6 °F -0.4 °F 78% 30.03 in 7.0 mi NNW 5.8 mph - N/A Snow Light Snow
3:56 AM 6.8 °F -4.8 °F -0.4 °F 72% 30.03 in 5.0 mi NNW 6.9 mph - N/A Snow Light Snow
4:16 AM 6.8 °F -4.8 °F -0.4 °F 72% 30.03 in 4.0 mi NNW 6.9 mph - N/A Snow Light Snow
4:36 AM 6.8 °F -4.8 °F -0.4 °F 72% 30.02 in 4.0 mi NNW 6.9 mph - N/A Snow Light Snow
4:56 AM 6.8 °F -4.8 °F 1.4 °F 79% 30.02 in 5.0 mi North 6.9 mph - N/A Snow Light Snow
5:55 AM 3.2 °F -9.1 °F -0.4 °F 85% 30.04 in 4.0 mi NNW 6.9 mph - N/A Snow Light Snow
6:55 AM 3.2 °F -7.8 °F -0.4 °F 85% 30.07 in 10.0 mi NW 5.8 mph - N/A   Mostly Cloudy
7:27 AM 3.2 °F -6.2 °F -0.4 °F 85% 30.07 in 4.0 mi NW 4.6 mph - N/A Snow Light Snow
7:52 AM 5.0 °F -5.6 °F -0.4 °F 78% 30.08 in 7.0 mi NNW 5.8 mph - N/A Snow Light Snow
8:53 AM 5.0 °F -6.9 °F -0.4 °F 78% 30.08 in 10.0 mi NNW 6.9 mph - N/A   Ice Crystals
9:49 AM 8.6 °F 2.0 °F 1.4 °F 73% 30.07 in 10.0 mi NW 3.5 mph - N/A   Ice Crystals
10:50 AM 10.4 °F - -0.4 °F 62% 30.06 in 10.0 mi Calm Calm - N/A   Scattered Clouds
11:55 AM 10.4 °F - -0.4 °F 62% 30.01 in 10.0 mi Calm Calm - N/A   Scattered Clouds
12:45 PM 15.8 °F 7.2 °F -0.4 °F 49% 29.98 in 10.0 mi North 5.8 mph - N/A   Scattered Clouds
1:52 PM 15.8 °F 7.2 °F 1.4 °F 53% 29.98 in 15.0 mi NNE 5.8 mph - N/A   Scattered Clouds
2:52 PM 15.8 °F 8.6 °F 1.4 °F 53% 30.00 in 20.0 mi WNW 4.6 mph - N/A   Scattered Clouds
3:53 PM 14.0 °F 8.2 °F -2.2 °F 49% 30.02 in 20.0 mi Variable 3.5 mph - N/A   Partly Cloudy
4:47 PM 12.2 °F 6.1 °F -7.6 °F 41% 30.03 in 20.0 mi NE 3.5 mph - N/A   Partly Cloudy
5:48 PM 12.2 °F - -7.6 °F 41% 30.05 in 20.0 mi Calm Calm - N/A   Partly Cloudy
6:46 PM 8.6 °F - -5.8 °F 52% 30.05 in 20.0 mi Calm Calm - N/A   Clear
7:46 PM 8.6 °F - -4.0 °F 57% 30.04 in 20.0 mi Calm Calm - N/A   Clear
9:53 PM 6.8 °F -0.1 °F -5.8 °F 56% 30.00 in 20.0 mi Variable 3.5 mph - N/A   Clear
10:16 PM 6.8 °F - -4.0 °F 61% 30.00 in 10.0 mi Calm Calm - N/A   Clear
10:36 PM 6.8 °F - -4.0 °F 61% 30.00 in 10.0 mi Calm Calm - N/A   Clear
10:56 PM 6.8 °F - -4.0 °F 61% 30.01 in 10.0 mi Calm Calm - N/A   Clear
11:16 PM 8.6 °F - -2.2 °F 62% 30.00 in 10.0 mi Calm Calm - N/A   Clear
11:36 PM 8.6 °F - -2.2 °F 62% 30.00 in 10.0 mi Calm Calm - N/A   Clear
11:56 PM 8.6 °F - -2.2 °F 62% 30.00 in 10.0 mi Calm Calm - N/A   Clear